Other Public Products
Issued by NWS Grand Forks, ND

Home | Current Version | Previous Version | Text Only | Print | Product List | Glossary Off
Versions: 1 2 3 4 5 6 7 8 9 10 11 12 13 14 15 16 17 18 19 20 21 22 23 24 25 26 27 28 29 30 31 32 33 34 35 36 37 38 39 40 41 42 43 44 45 46 47 48 49 50

000
FPUS83 KFGF 262331
OPUFGF
PRAIRIE TO PINES WEATHER ROUNDUP
NATIONAL WEATHER SERVICE EASTERN NORTH DAKOTA/GRAND FORKS ND
600 PM CDT WED APR 26 2017

 **SATELLITE DATA USED TO AUGMENT SKY COVER AT AUTOMATED STATIONS**
 *****  WEATHER ACROSS EASTERN NORTH DAKOTA  *****

CITY           SKY/WX    TMP DP  RH WIND       PRES   REMARKS
GRAND FORKS    LGT SNOW  32  30  92 N17       29.77S VSB 1   WCI  21
GRAND FORKS AF LGT SNOW  32  28  86 N16       29.78S FOG     WCI  21
GRAND CITY NWS NOT AVBL
BUXTON           N/A     29  29  99 N14         N/A  WCI  19
DEVILS LAKE    CLOUDY    37  26  64 NE18      29.78F
FARGO          LGT SNOW  30  28  92 N18       29.72S FOG     WCI  18
WAHPETON ARPT  CLOUDY    30  27  86 N14       29.70R WCI  20
$$

 *****  WEATHER ACROSS CENTRAL AND WESTERN NORTH DAKOTA  *****

CITY           SKY/WX    TMP DP  RH WIND       PRES   REMARKS
JAMESTOWN      CLOUDY    31  25  78 NE15      29.76S WCI  20
BISMARCK       CLOUDY    45  28  51 NE14      29.76S
MINOT          FAIR      50  23  34 N15       29.77F
MINOT AFB      FAIR      48  23  36 N15G21    29.77F
GARRISON         N/A     47  23  38 NE10G20   29.75F
WILLISTON      FAIR      52  21  29 NE10      29.77F
DICKINSON      FAIR      46  19  34 NE13G20   29.72F
HETTINGER      FAIR      49  24  37 NE12      29.73F
$$

 *****  OTHER OBSERVATIONS NORTHEAST NORTH DAKOTA  *****

CITY           SKY/WX    TMP DP  RH WIND       PRES   REMARKS
WALHALLA       NOT AVBL
LANGDON        MOCLDY    39  25  56 NE21G30   29.79R
CAVALIER         N/A     39  27  60 NE10      29.80S
GRAFTON        LGT SNOW  30  32 100 NE10      29.82S WCI  21
CANDO          NOT AVBL
FORT TOTTEN      N/A     36  28  73 NE7       29.95S
ROLLA          FAIR      41  25  52 NE20      29.80S
RUGBY          NOT AVBL
 ***** THE ABOVE OBSERVATIONS ARE NON NWS ARE NOT QUALITY
        CONTROLLED AND MAY MIS-REPORT RAIN FOR SNOW...
$$

 *****  OTHER OBSERVATIONS SOUTHEAST NORTH DAKOTA *****

CITY           SKY/WX    TMP DP  RH WIND       PRES   REMARKS
COOPERSTOWN    LGT SNOW  30  28  93 N13       29.77S WCI  20
VALLEY CITY    LGT SNOW  28  28 100 N13       29.76S WCI  18
OAKES          NOT AVBL
GWINNER        CLOUDY    28  27  93 MISG      29.73S FOG
BUFFALO          N/A     28  26  91 SE13G24     N/A  WCI  18
WYNDMERE         N/A     30  28  93 N18         N/A  WCI  18
 ***** THE ABOVE OBSERVATIONS ARE NON NWS ARE NOT QUALITY
       CONTROLLED AND MAY MIS-REPORT RAIN FOR SNOW...
$$

  *****  WEATHER ACROSS NORTHERN MINNESOTA  *****

CITY           SKY/WX    TMP DP  RH WIND       PRES   REMARKS
FLAG ISLAND    LGT SNOW  30  25  80 NE20G25   29.79S WCI  18
WARROAD        LGT SNOW  30  27  86 NE20G28   29.78R WCI  18
ROSEAU         LGT SNOW  32  25  74 NE18      29.78S WCI  20
HALLOCK        LGT SNOW  34  28  80 NE15      29.80S WCI  24
THF RVR FALLS  LGT SNOW  29  26  89 NE16      29.74F FOG     WCI  17
HALSTAD          N/A     29  27  92 N21         N/A  WCI  15
FOSSTON        LGT SNOW  27  25  93 N20       29.69F WCI  13
BAUDETTE       FLURRIES  29  23  78 NE14      29.73F WCI  18
WASKISH        LGT SNOW  28  25  86 NE12      29.70R WCI  18
CROOKSTON      LGT SNOW  30  28  93 N12       29.76S WCI  21
$$
  *****  WEATHER ACROSS CENTRAL AND WEST MINNESOTA  *****

CITY           SKY/WX    TMP DP  RH WIND       PRES   REMARKS
BEMIDJI        LGT SNOW  27  25  91 NE13      29.66S WCI  16
PARK RAPIDS    LGT SNOW  30  23  75 N12       29.63R WCI  20
WADENA         CLOUDY    28  27  93 CALM      29.63S
DETROIT LAKES  PTSUNNY   30  28  93 N5        29.66S
MOORHEAD       LGT RAIN  28  27  93 N8        29.72R WCI  20
FERGUS FALLS   CLOUDY    30  27  86 N10G18    29.67S WCI  21
ELBOW LAKE     LGT SNOW  31  29  95 NW10      29.66R WCI  22
MORRIS MN      CLOUDY    32  28  86 NW17      29.64S WCI  21
STAPLES        LGT SNOW  28  27  93 N7        29.63R WCI  21
WHEATON        CLOUDY    30  27  86 NW15G21   29.71R WCI  19
$$
  *****  WEATHER ELSEWHERE ACROSS MINNESOTA  *****

CITY           SKY/WX    TMP DP  RH WIND       PRES   REMARKS
DULUTH         CLOUDY    32  29  88 N12       29.56R FOG     WCI  23
INTRNTL FALLS  LGT SNOW  27  21  78 NE12G29   29.72R WCI  17
ELY            LGT SNOW  25  19  80 N8        29.63S WCI  16
CLOQUET        CLOUDY    32  28  86 N12       29.57R FOG     WCI  23
BRAINERD       CLOUDY    30  27  88 N12       29.61S WCI  20
HIBBING        CLOUDY    28  24  85 N12       29.62R WCI  18
ALEXANDRIA     CLOUDY    31  26  82 N12       29.63S WCI  22
SAINT CLOUD    CLOUDY    33  30  88 N14       29.58S WCI  23
MINNEAPOLIS    CLOUDY    40  32  73 N10G18    29.55S
$$

  *****  WEATHER ACROSS SOUTH DAKOTA  *****

CITY           SKY/WX    TMP DP  RH WIND       PRES   REMARKS
SIOUX FALLS    CLOUDY    36  29  75 NW16G28   29.67S
BROOKINGS      CLOUDY    32  27  80 N17G24    29.66S WCI  21
WATERTOWN      CLOUDY    30  24  78 N20       29.67R WCI  17
HURON          CLOUDY    34  27  75 N20G25    29.72F WCI  23
SISSETON         N/A     31  26  82 N20       29.69R WCI  19
ABERDEEN       CLOUDY    31  26  82 N17       29.75S WCI  19
MITCHELL       CLOUDY    38  28  67 N17       29.72S
PIERRE         FAIR      48  28  46 N16       29.71F
MOBRIDGE       FAIR      47  26  44 N15G22    29.71F
RAPID CITY     FAIR      38  28  67 N8        29.74F
$$

  *****  SOME WEATHER IN NEARBY STATES *****

CITY           SKY/WX    TMP DP  RH WIND       PRES   REMARKS
GLASGOW MT     FAIR      50  26  39 S12       29.71F
GREAT FALLS MT CLOUDY    53  33  46 N8        29.58F
CHEYENNE WY    CLOUDY    45  33  63 W15       29.71R
SCOTTSBLUFF NE PTSUNNY   60  31  33 N8        29.65S
OMAHA NE       CLOUDY    43  32  65 NW15G23   29.65S
DES MOINES IA  CLOUDY    47  38  71 NW12      29.58R
DAVENPORT IA   CLOUDY    51  46  83 W10       29.52F
CHICAGO IL     CLOUDY    70  57  63 W10       29.46F
EAU CLAIRE WI  CLOUDY    40  36  86 NW10      29.51R
LA CROSSE WI   CLOUDY    46  40  79 W12       29.50R
$$

  *****  SOME NATIONAL WEATHER *****

CITY           SKY/WX    TMP DP  RH WIND       PRES   REMARKS
LA GUARDIA NY  CLOUDY    60  57  89 CALM      29.79R FOG
RALEIGH NC     FAIR      78  63  59 SW12      29.80S
ATLANTA GA     FAIR      79  57  46 S14       29.76F
NEW ORLEANS LA PTSUNNY   78  72  81 SE13      29.64F
OKLAHOMA CITY  PTSUNNY   57  40  52 NW16G29   29.69R
ALBUQUERQUE NM PTSUNNY   65  14  14 NW17G24   29.79F
SALT LAKE CITY LGT RAIN  54  37  52 VRB5      29.76S
LOS ANGELES CA FAIR      70  55  59 SW18      29.83F
BOISE ID       PTSUNNY   51  42  71 CALM      29.73F
SEATTLE WA     PTSUNNY   55  42  61 N9        29.86R
$$

*** WEATHER ACROSS MANITOBA...SASKATCHEWAN AND ONTARIO ***
                ***ONTARIO***

CITY           SKY/WX    TMP DP  RH WIND       PRES   REMARKS
GERALDTON      LGTSLEET  18  12  79 NE21G33   29.72F VSB 3/4 WCI   1
THUNDER BAY    LGTSLEET  23  19  86 NE7       29.63S WCI  15
SIOUX LOOKOUT  LGT SNOW  21  18  86 VRB8G23   29.84R VSB 3/4 WCI  12
TORONTO        PTSUNNY   59  52  77 E12       29.68S
BIG TROUT LK   SUNNY     30   5  34 E10G17    30.14F WCI  21
PICKLE LAKE    CLOUDY    23   3  42 NE13G29   29.94F WCI  11
DRYDEN         LGT SNOW  23  21  93 NE23G37   29.78S VSB 3/4 WCI   7
KENORA         FLURRIES  30  19  64 NE15G28   29.80F WCI  19
$$
                *** MANITOBA***

CITY           SKY/WX    TMP DP  RH WIND       PRES   REMARKS
BRANDON        PTSUNNY   43  23  45 NE23      29.85S
DAUPHIN        SUNNY     43  16  33 E15       29.93F
ISLAND LAKE    MOSUNNY   37   5  25 VRB7      30.07F
PILOT MOUND      N/A     39  21  48 NE18G28     N/A
THE PAS        MOSUNNY   41   9  26 E9G18     30.01F
THOMPSON       SUNNY     37  -2  18 E2        30.09F
WINNIPEG       CLOUDY    43  25  49 NE18G24   29.84S
LYNN LAKE      SUNNY     37   7  28 S10       30.02F
CHURCHILL      SUNNY     30  14  51 SW15      30.13F WCI  19
GILLAM         SUNNY     37   1  22 SE3       30.16F
$$
                ***SASKATCHEWAN***

CITY           SKY/WX    TMP DP  RH WIND       PRES   REMARKS
ESTEVAN        MOSUNNY   48  21  34 NE14      29.81F
KINDERSLEY     LGT RAIN  37  36  93 SE20      29.72F
LLOYDMINSTER   FLURRIES  34  32  93 SE14G20   29.78S WCI  24
PRINCE ALBERT  PTSUNNY   43  16  33 E9G23     29.91F
REGINA         MOSUNNY   46  19  34 E15       29.82F
YORKTON        SUNNY     46  12  25 E12G24    29.87F
N. BATTLEFORD  CLOUDY    41  27  56 SE20G28   29.84S



USA.gov is the U.S. government's official web portal to all federal, state and local government web resources and services.